TimeCDT,TemperatureF,Dew PointF,Humidity,Sea Level PressureIn,VisibilityMPH,Wind Direction,Wind SpeedMPH,Gust SpeedMPH,PrecipitationIn,Events,Conditions,WindDirDegrees,DateUTC
12:58 AM,70.9,63.0,76,29.96,10.0,East,6.9,-,N/A,,Clear,80,2013-09-27 05:58:00
1:58 AM,69.8,62.8,78,29.95,10.0,ENE,6.9,-,N/A,,Clear,60,2013-09-27 06:58:00
2:58 AM,68.4,62.1,80,29.95,10.0,ENE,4.6,-,N/A,,Clear,70,2013-09-27 07:58:00
3:58 AM,66.0,62.1,87,29.96,10.0,NNE,4.6,-,N/A,,Clear,30,2013-09-27 08:58:00
4:58 AM,65.3,61.7,88,29.98,10.0,NNE,3.5,-,N/A,,Clear,30,2013-09-27 09:58:00
5:58 AM,64.8,61.3,89,29.99,10.0,NE,5.8,-,N/A,,Clear,40,2013-09-27 10:58:00
6:58 AM,64.6,61.3,89,30.02,10.0,NE,5.8,-,N/A,,Clear,40,2013-09-27 11:58:00
7:58 AM,68.2,62.2,81,30.04,10.0,NE,5.8,-,N/A,,Clear,50,2013-09-27 12:58:00
8:58 AM,73.4,62.4,68,30.05,10.0,ENE,9.2,-,N/A,,Clear,60,2013-09-27 13:58:00
9:58 AM,76.8,61.3,59,30.05,10.0,ENE,12.7,-,N/A,,Clear,70,2013-09-27 14:58:00
10:58 AM,78.6,61.9,56,30.05,10.0,Variable,4.6,-,N/A,,Clear,0,2013-09-27 15:58:00
11:58 AM,81.1,61.3,51,30.03,10.0,ENE,10.4,-,N/A,,Partly Cloudy,60,2013-09-27 16:58:00
12:58 PM,82.8,61.2,48,30.01,10.0,NE,9.2,-,N/A,,Clear,50,2013-09-27 17:58:00
1:24 PM,82.4,60.8,48,29.98,10.0,East,8.1,-,N/A,Rain,Light Rain,80,2013-09-27 18:24:00
1:26 PM,82.4,60.8,48,29.98,10.0,Variable,3.5,-,N/A,,Clear,0,2013-09-27 18:26:00
1:28 PM,82.4,60.8,48,29.98,10.0,East,5.8,-,N/A,Rain,Light Rain,90,2013-09-27 18:28:00
1:34 PM,84.2,60.8,45,29.98,10.0,North,6.9,-,N/A,,Clear,10,2013-09-27 18:34:00
1:58 PM,83.7,60.1,45,29.99,10.0,NE,8.1,-,0.00,,Partly Cloudy,50,2013-09-27 18:58:00
2:58 PM,83.8,59.5,44,29.97,10.0,NE,10.4,-,N/A,,Partly Cloudy,40,2013-09-27 19:58:00
3:16 PM,84.2,59.0,42,29.96,10.0,NE,12.7,20.7,N/A,,Clear,40,2013-09-27 20:16:00
3:58 PM,84.0,60.3,45,29.97,10.0,ENE,12.7,-,N/A,,Scattered Clouds,60,2013-09-27 20:58:00
4:58 PM,82.8,59.7,45,29.97,10.0,NE,9.2,-,N/A,,Scattered Clouds,50,2013-09-27 21:58:00
5:58 PM,80.4,59.4,49,29.98,10.0,NE,5.8,-,N/A,,Clear,40,2013-09-27 22:58:00
6:58 PM,76.1,60.4,58,30.00,10.0,NE,5.8,-,N/A,,Clear,50,2013-09-27 23:58:00
7:58 PM,73.4,60.6,64,30.01,10.0,NE,5.8,-,N/A,,Clear,40,2013-09-28 00:58:00
8:58 PM,73.0,59.0,61,30.03,10.0,ENE,6.9,-,N/A,,Clear,60,2013-09-28 01:58:00
9:58 PM,72.0,58.5,62,30.04,10.0,ENE,6.9,-,N/A,,Clear,60,2013-09-28 02:58:00
10:58 PM,69.3,58.8,69,30.05,10.0,NE,3.5,-,N/A,,Clear,50,2013-09-28 03:58:00
11:58 PM,67.8,58.6,72,30.05,10.0,NE,5.8,-,N/A,,Clear,50,2013-09-28 04:58:00